Hourly Weather Barsuki

Today, 19 April, Monday

Time Temperature Precipitation Wind Pressure Humidity
00:00 +8°C° 0 mm 1 mps 749 mmHg 86%
01:00 +8°C° 0 mm 1 mps 749 mmHg 86%
02:00 +8°C° 0 mm 1 mps 749 mmHg 87%
03:00 +7°C° 0 mm 2 mps 749 mmHg 86%
04:00 +7°C° 0 mm 2 mps 749 mmHg 86%
05:00 +6°C° 0 mm 2 mps 749 mmHg 85%
06:00 +7°C° 0 mm 3 mps 749 mmHg 82%
07:00 +7°C° 0 mm 4 mps 749 mmHg 78%
08:00 +7°C° 0 mm 4 mps 749 mmHg 74%
09:00 +8°C° 0 mm 5 mps 749 mmHg 69%
10:00 +9°C° 0 mm 5 mps 749 mmHg 63%
11:00 +10°C° 0 mm 6 mps 748 mmHg 58%
12:00 +10°C° 0 mm 5 mps 748 mmHg 59%
13:00 +10°C° 0 mm 5 mps 748 mmHg 60%
14:00 +11°C° 0 mm 4 mps 748 mmHg 60%
15:00 +11°C° 0.1 mm 4 mps 748 mmHg 62%
16:00 +11°C° 0.1 mm 4 mps 748 mmHg 63%
17:00 +10°C° 0.1 mm 5 mps 748 mmHg 64%
18:00 +10°C° 0.1 mm 4 mps 748 mmHg 70%
19:00 +8°C° 0.1 mm 4 mps 748 mmHg 76%
20:00 +8°C° 0.1 mm 3 mps 748 mmHg 82%
21:00 +7°C° 0 mm 3 mps 748 mmHg 86%
22:00 +5°C° 0 mm 3 mps 748 mmHg 89%
23:00 +5°C° 0 mm 3 mps 748 mmHg 93%

Tomorrow, 20 April, Tuesday

Time Temperature Precipitation Wind Pressure Humidity
00:00 +5°C° 0 mm 3 mps 747 mmHg 93%
01:00 +5°C° 0 mm 3 mps 747 mmHg 93%
02:00 +5°C° 0 mm 3 mps 747 mmHg 93%
03:00 +5°C° 0 mm 3 mps 747 mmHg 92%
04:00 +5°C° 0 mm 3 mps 746 mmHg 92%
05:00 +5°C° 0 mm 3 mps 746 mmHg 91%
06:00 +5°C° 0 mm 3 mps 746 mmHg 87%
07:00 +5°C° 0 mm 4 mps 746 mmHg 84%
08:00 +6°C° 0 mm 4 mps 746 mmHg 80%
09:00 +6°C° 0.1 mm 4 mps 745 mmHg 76%
10:00 +7°C° 0.1 mm 4 mps 745 mmHg 73%
11:00 +7°C° 0.1 mm 4 mps 745 mmHg 70%
12:00 +7°C° 0.1 mm 4 mps 744 mmHg 70%
13:00 +7°C° 0.1 mm 4 mps 744 mmHg 70%
14:00 +7°C° 0.1 mm 4 mps 744 mmHg 71%
15:00 +7°C° 0 mm 4 mps 743 mmHg 71%
16:00 +6°C° 0 mm 4 mps 743 mmHg 71%
17:00 +6°C° 0 mm 4 mps 743 mmHg 71%
18:00 +7°C° 0 mm 3 mps 743 mmHg 74%
19:00 +5°C° 0 mm 3 mps 743 mmHg 78%
20:00 +5°C° 0 mm 2 mps 743 mmHg 81%
21:00 +5°C° 0 mm 2 mps 742 mmHg 82%
22:00 +6°C° 0 mm 1 mps 742 mmHg 84%
23:00 +6°C° 0 mm 1 mps 741 mmHg 85%

Day after tomorrow, 21 April, Wednesday

Time Temperature Precipitation Wind Pressure Humidity
00:00 +6°C° 0 mm 1 mps 741 mmHg 84%
01:00 +6°C° 0 mm 1 mps 741 mmHg 84%
02:00 +6°C° 0 mm 1 mps 740 mmHg 84%
03:00 +6°C° 0 mm 1 mps 740 mmHg 84%
04:00 +6°C° 0 mm 1 mps 740 mmHg 84%
05:00 +6°C° 0 mm 1 mps 740 mmHg 83%
06:00 +6°C° 0.1 mm 1 mps 739 mmHg 84%
07:00 +5°C° 0.1 mm 2 mps 739 mmHg 85%
08:00 +6°C° 0.1 mm 2 mps 739 mmHg 85%
09:00 +5°C° 0.2 mm 3 mps 739 mmHg 80%
10:00 +7°C° 0.2 mm 3 mps 739 mmHg 76%
11:00 +7°C° 0.2 mm 4 mps 739 mmHg 71%
12:00 +8°C° 0 mm 4 mps 739 mmHg 64%
13:00 +10°C° 0 mm 4 mps 739 mmHg 57%
14:00 +10°C° 0 mm 4 mps 739 mmHg 50%
15:00 +11°C° 0 mm 4 mps 739 mmHg 50%
16:00 +11°C° 0 mm 4 mps 739 mmHg 50%
17:00 +11°C° 0 mm 3 mps 739 mmHg 50%
18:00 +10°C° 0 mm 2 mps 739 mmHg 55%
19:00 +10°C° 0 mm 1 mps 739 mmHg 60%
20:00 +7°C° 0 mm 0 mps 739 mmHg 65%
21:00 +8°C° 0 mm 1 mps 739 mmHg 66%
22:00 +7°C° 0 mm 2 mps 740 mmHg 68%
23:00 +7°C° 0 mm 2 mps 740 mmHg 69%

22 April, Thursday

Time Temperature Precipitation Wind Pressure Humidity
00:00 +6°C° 0 mm 2 mps 740 mmHg 75%
01:00 +6°C° 0 mm 2 mps 740 mmHg 80%
02:00 +5°C° 0 mm 2 mps 740 mmHg 85%
03:00 +5°C° 0 mm 2 mps 740 mmHg 87%
04:00 +5°C° 0 mm 2 mps 740 mmHg 89%
05:00 +4°C° 0 mm 2 mps 740 mmHg 91%
06:00 +5°C° 0 mm 3 mps 740 mmHg 84%
07:00 +8°C° 0 mm 3 mps 740 mmHg 78%
08:00 +9°C° 0 mm 3 mps 740 mmHg 71%
09:00 +10°C° 0.3 mm 4 mps 741 mmHg 68%
10:00 +12°C° 0.3 mm 4 mps 741 mmHg 65%
11:00 +13°C° 0.3 mm 5 mps 741 mmHg 63%
12:00 +13°C° 0.2 mm 5 mps 741 mmHg 59%
13:00 +13°C° 0.2 mm 6 mps 741 mmHg 55%
14:00 +14°C° 0.2 mm 6 mps 741 mmHg 51%
15:00 +13°C° 0.1 mm 6 mps 742 mmHg 55%
16:00 +12°C° 0.1 mm 5 mps 742 mmHg 59%
17:00 +11°C° 0.1 mm 4 mps 742 mmHg 63%
18:00 +10°C° 0 mm 4 mps 742 mmHg 69%
19:00 +9°C° 0 mm 3 mps 742 mmHg 74%
20:00 +7°C° 0 mm 2 mps 743 mmHg 79%
21:00 +7°C° 0.1 mm 2 mps 742 mmHg 81%
22:00 +7°C° 0.1 mm 2 mps 742 mmHg 82%
23:00 +7°C° 0.1 mm 3 mps 742 mmHg 84%

23 April, Friday

Time Temperature Precipitation Wind Pressure Humidity
00:00 +5°C° 1.2 mm 3 mps 742 mmHg 87%
01:00 +4°C° 1.2 mm 3 mps 742 mmHg 90%
02:00 +3°C° 1.2 mm 4 mps 742 mmHg 93%
03:00 +3°C° 1.2 mm 3 mps 742 mmHg 93%
04:00 +3°C° 1.2 mm 2 mps 742 mmHg 93%
05:00 +3°C° 1.2 mm 2 mps 742 mmHg 93%
06:00 +3°C° 0 mm 2 mps 742 mmHg 89%
07:00 +3°C° 0 mm 3 mps 742 mmHg 86%
08:00 +4°C° 0 mm 3 mps 742 mmHg 82%
09:00 +5°C° 0.1 mm 4 mps 742 mmHg 75%
10:00 +5°C° 0.1 mm 4 mps 741 mmHg 68%
11:00 +6°C° 0.1 mm 5 mps 741 mmHg 62%
12:00 +5°C° 0.3 mm 6 mps 741 mmHg 62%
13:00 +7°C° 0.3 mm 6 mps 741 mmHg 63%
14:00 +6°C° 0.3 mm 7 mps 741 mmHg 63%
15:00 +5°C° 0.2 mm 7 mps 741 mmHg 63%
16:00 +5°C° 0.2 mm 6 mps 741 mmHg 64%
17:00 +5°C° 0.2 mm 6 mps 741 mmHg 64%
18:00 +5°C° 0 mm 5 mps 741 mmHg 69%
19:00 +4°C° 0 mm 4 mps 741 mmHg 74%
20:00 +3°C° 0 mm 4 mps 741 mmHg 80%
21:00 +3°C° 0 mm 4 mps 741 mmHg 84%
22:00 +1°C° 0 mm 4 mps 741 mmHg 88%
23:00 +1°C° 0 mm 5 mps 741 mmHg 93%

24 April, Saturday

Time Temperature Precipitation Wind Pressure Humidity
00:00 +1°C° 0.1 mm 5 mps 741 mmHg 90%
01:00 -1°C° 0.1 mm 6 mps 741 mmHg 87%
02:00 -1°C° 0.1 mm 6 mps 741 mmHg 85%
03:00 -2°C° 0.1 mm 7 mps 741 mmHg 85%
04:00 -2°C° 0.1 mm 7 mps 741 mmHg 85%
05:00 -2°C° 0.1 mm 7 mps 741 mmHg 86%
06:00 -2°C° 0 mm 6 mps 742 mmHg 80%
07:00 -1°C° 0 mm 6 mps 742 mmHg 75%
08:00 -1°C° 0 mm 6 mps 742 mmHg 69%
09:00 +1°C° 0 mm 6 mps 743 mmHg 62%
10:00 +2°C° 0 mm 5 mps 743 mmHg 55%
11:00 +5°C° 0 mm 5 mps 743 mmHg 48%
12:00 +5°C° 0 mm 5 mps 743 mmHg 45%
13:00 +6°C° 0 mm 5 mps 743 mmHg 41%
14:00 +7°C° 0 mm 5 mps 743 mmHg 38%
15:00 +6°C° 0 mm 5 mps 743 mmHg 39%
16:00 +6°C° 0 mm 5 mps 743 mmHg 40%
17:00 +6°C° 0 mm 5 mps 743 mmHg 40%
18:00 +4°C° 0 mm 4 mps 743 mmHg 47%
19:00 +3°C° 0 mm 3 mps 743 mmHg 54%
20:00 +3°C° 0 mm 2 mps 743 mmHg 60%
21:00 +2°C° 0 mm 2 mps 743 mmHg 66%
22:00 +1°C° 0 mm 2 mps 743 mmHg 72%
23:00 +1°C° 0 mm 2 mps 743 mmHg 77%
Show more